Regional Weather Roundup
Issued by NWS San Diego, CA

Home | Current Version | Previous Version | Text Only | Print | Product List | Glossary On
Versions: 1 2 3 4 5 6 7 8 9 10 11 12 13 14 15 16 17 18 19 20 21 22 23 24 25 26 27 28 29 30 31 32 33 34 35 36 37 38 39 40 41 42 43 44 45 46 47 48 49 50
000
ASUS46 KSGX 220810
RWRSGX

SAN DIEGO HOURLY WEATHER ROUNDUP
NATIONAL WEATHER SERVICE SAN DIEGO CA
100 AM PDT FRI AUG 22 2014

NOTE: "FAIR" INDICATES FEW OR NO CLOUDS BELOW 12,000 FEET WITH NO
SIGNIFICANT WEATHER AND/OR OBSTRUCTIONS TO VISIBILITY.

CAZ042-043-060-061-PZZ750-775-220900-

GREATER SAN DIEGO AREA

CITY           SKY/WX    TMP DP  RH WIND       PRES   REMARKS
LINDBERGH FLD  MOCLDY    70  64  83 N3        29.97S
POINT LOMA       N/A     66  62  88 NW7         N/A
NATIONAL CITY    N/A     70  65  84 CALM      29.97F
CHULA VISTA      N/A     69  65  87 CALM      29.90S
IMPERIAL BEACH PTCLDY    70  65  84 NW7       29.96S
BROWN FIELD    CLEAR     66  62  87 CALM      29.97S
MIRAMAR MCAS   PTCLDY    67  62  84 NW5       29.96F
MONTGOMERY FLD CLEAR     69  63  81 NW3       29.97S

$$

NORTH SAN DIEGO COUNTY

CITY           SKY/WX    TMP DP  RH WIND       PRES   REMARKS
CAMP PENDLETON CLEAR     67  62  84 CALM      29.96S
OCEANSIDE AP   CLOUDY    67  62  84 CALM      29.95S
VISTA            N/A     67  63  86 CALM      29.94S
CARLSBAD       CLOUDY    69  64  84 CALM      29.96S
DEL MAR          N/A     67  65  92 CALM      29.98S
LA JOLLA SCRIP   N/A     68  65  90 CALM      29.93S
FALLBROOK        N/A     66  66 100 CALM      29.96S
ESCONDIDO        N/A     68  64  86 W3        29.97F
SAN MARCOS       N/A     67  62  85 CALM      29.94S
POWAY            N/A     66  61  85 CALM      29.96F
R. PENASQUITOS   N/A     67  63  89 CALM      29.96S

$$

EAST SAN DIEGO COUNTY

CITY           SKY/WX    TMP DP  RH WIND       PRES   REMARKS
RAMONA         CLEAR     64  60  87 CALM      29.99S
GILLESPIE FLD  FAIR      66  63  88 W5        29.98S
JAMUL            N/A     65  62  91 CALM      29.94S
DESCANSO N       N/A     60  53  78 E3        29.84S
MT. LAGUNA OBS   N/A     58  48  71 SW3       29.77S
CAMPO            N/A     58  52  80 NE5       30.00F

$$

ORANGE COUNTY AND THE LOS ANGELES BASIN

CITY           SKY/WX    TMP DP  RH WIND       PRES   REMARKS
JOHN WAYNE AP  CLEAR     72  64  76 CALM      29.95S
LAGUNA BEACH     N/A     67  62  84 CALM      29.92R
LAKE FOREST FR   N/A     66  59  77 CALM      29.85S
SANTA ANA        N/A     69  64  83 CALM      29.90F
HUNTINGTON BCH   N/A     67  64  90 CALM      29.97S
LOS ALAMITOS   FAIR      68  62  81 W5        29.95F
FULLERTON      CLEAR     71  61  70 CALM      29.94F
LONG BEACH     CLEAR     69  63  81 W7        29.94F
L.A. AP        PTCLDY    68  62  81 W6        29.95F
L.A. DOWNTOWN  CLEAR     68  61  78 CALM      29.95S

$$

THE INLAND EMPIRE

CITY           SKY/WX    TMP DP  RH WIND       PRES   REMARKS
CHINO          CLEAR     69  62  78 CALM      29.97S
ONTARIO        CLEAR     71  61  70 SW3       29.96S
RIVERSIDE AP   CLEAR     72  61  68 CALM      29.96F
RIV CYN CREST    N/A     72  69  90 SW1       29.95S
MORENO VALLEY    N/A     69  65  85 CALM      29.17S
MARCH ARB      CLEAR     69  63  81 N1        29.98F
HORSETHIEF CYN   N/A     69  56  63 CALM      29.96F
PERRIS           N/A     71  63  75 SW1       29.95S
MENIFEE          N/A     71  64  76 CALM      30.03S
HEMET EAST       N/A     67  52  57 CALM      29.95S
FRENCH VALLEY  FAIR      68  61  77 CALM      29.98F
TEMECULA         N/A     68  63  82 CALM      29.95S

$$

SAN BERNARDINO AND RIVERSIDE COUNTY MOUNTAINS

CITY           SKY/WX    TMP DP  RH WIND       PRES   REMARKS
BIG BEAR AP    CLEAR     46  45  93 CALM      30.26S
BIG BEAR SHEA    N/A     46  41  83 CALM      29.98F
ANGELUS OAKS     N/A     55  49  82 CALM      29.87F
PINE COVE        N/A     57  51  80 CALM      29.84F

$$

SOUTHERN DESERT INCLUDING THE COACHELLA VALLEY

CITY           SKY/WX    TMP DP  RH WIND       PRES   REMARKS
PALM SPRINGS   CLEAR     79  60  52 W3        29.93F
THOUSAND PALMS   N/A     76  59  55 NW1       29.88F
PALM DESERT      N/A     76  64  65 CALM      29.17S
THERMAL        CLEAR     72  59  63 CALM      29.87F
BLYTHE         PTCLDY    71  67  87 E7        29.93F
IMPERIAL AP    PTCLDY    72  68  87 SE5       29.89F
EL CENTRO NAS  PTCLDY    71  67  87 SE5       29.89F
YUMA AZ        CLEAR     74  65  73 NE5       29.92S

$$

UPPER DESERT

CITY           SKY/WX    TMP DP  RH WIND       PRES   REMARKS
VICTORVILLE AP CLEAR     72  54  53 SE5       30.03F
HESPERIA         N/A     70  55  59 CALM      30.01S
APPLE VALLEY     N/A     70  54  56 CALM      30.10S
GRAY BUTTE AP  FAIR      66  49  54 SE3       30.03S
PALMDALE       CLEAR     73  50  44 W8        30.02S
LANCASTER      CLEAR     72  53  51 W12       30.00F
EDWARDS AFB    CLEAR     74  54  49 SW15      29.97F
DAGGETT        CLEAR     73  58  59 CALM      29.98R
29 PALMS N     CLEAR     71  57  61 SW7       30.05F
NEEDLES        PTCLDY    77  58  51 S6        29.95S

$$

REGIONAL REPORTS

CITY           SKY/WX    TMP DP  RH WIND       PRES   REMARKS
SANTA BARBARA  PTCLDY    64  60  87 SE5       29.95F
SANDBERG       CLEAR     66  52  60 S8        30.14S
MT. WILSON       N/A     59  43  55 S6          N/A
LAS VEGAS NV   PTCLDY    73  51  46 S9        29.95S
PHOENIX AZ     PTCLDY    74  66  76 SE6       29.95F
TIJUANA        CLOUDY    66  61  82 CALM      29.98S
ENSENADA NW      N/A     70  32  24 SE7       29.93F

$$

OFFSHORE ISLANDS

CITY           SKY/WX    TMP DP  RH WIND       PRES   REMARKS
CATALINA ARPT  CLEAR     64  59  83 SE6       29.99F
SAN NICOLAS IS CLEAR    N/A N/A N/A CALM      29.97S

$$

MARINE AND OFFSHORE BUOY REPORTS

STATION/POSITION SKY/WX   TEMP    WIND        PRES    SWELL
                          AIR SEA DIR/SP/G            HT/PER/DIR
                          (F)     (DEG/KT/KT) (MB)    (FT/S/D)
TANNER BANKS               65 68  310/  4/  6 1015.0F   5/180/11
S CLEMENTE BASIN           67 70  290/  8/ 10 1014.5F   5/190/11
SAN NICOLAS IS.               66                N/A     3/180/11
SO. S. ROSA ISLA           62 67  300/  8/ 12 1014.5R   5/11
W. S. BARBARA CH           61 62  310/ 14/ 16 1013.4R   3/180/10
S. MONICA BASIN            68 72  210/  4/  6 1014.0F   3/160/10
S PEDRO CHANNEL               69                N/A     2/170/11
DANA POINT                    72                N/A     3/180/11
CMP PENDLETON NS              73                N/A     2/200/11
OCEANSIDE OFFSHR              73                N/A     3/190/11
TORREY PINES OTR              73                N/A     2/180/11
LA JOLLA 1                 70 65   30/  3/  4 1014.5S
MISSION BAY BUOY              71                N/A     3/190/11
SAN DIEGO BAY                 74              1015.0F
POINT LOMA SOUTH              73                N/A     3/200/12

$$




USA.gov is the U.S. government's official web portal to all federal, state and local government web resources and services.